STARLINK-1673 (46327 NORAD) Tracking and Keplerian Element Data

This shows tracking and keplerian element data for the satellite.

Feedback or suggestion? Click here.




ElementValue
Catalog46327
NameSTARLINK-1673
Epoch Orbit184
Epoch Day336.91667824
Epoch Year2020
RAAN12.7856
Inclination52.9956
Eccentricity0.0001476
Argument of Perigee65.0988
Mean Anonmoly221.2207
Mean Motion15.05572244
Decay Rate0.00028706
L11 46327U 20062C 20336.91667824 .00028706 00000-0 19817-2 0 9990
L22 46327 52.9956 12.7856 0001476 65.0988 221.2207 15.05572244 1847

Live tracking and technical data element details for STARLINK-1673 (NORAD 46327). STARLINK-1673 can be tracked NOW for your location showing map with azimuth and elevation plus other details from your city location.

Track the satellite on the map from your city or location and see movement details for azimuth, elevation, latitude, longitude, range, height, and movement on the map or in text.







IsCatalogInMostPopularTable: catalog: 46327, numindb: 23
Update: records affected: 1



GetName: 46327 STARLINK-1673

Hit Count: updated at: Thu, 03 Dec 2020 06:37:02 GMT